Home > Weather > Calgary > Past weeks

Flag for Canada Past Weather in Calgary, Alberta, Canada — Yesterday and Last 2 Weeks

Now
55 °F

Scattered clouds.


Feels Like: 55 °F
Forecast: 56 / 72 °F
Wind: 2 mph from North

Location: Calgary International

Current Time: Jul 23, 2016 at 7:23:07 AM

Latest Report: Jul 23, 2016 at 7:00 AM


Visibility: 20 mi

Pressure: 30.00 "Hg (26.42 "Hg at 1063m altitude)

Humidity: 82%

Dew Point: 50 °F

Location of CalgaryLocation

Past Weather in Calgary — Graph

°F

Calgary Temperature Yesterday

Maximum temperature yesterday: 72 °F (at 1:00 PM)
Minimum temperature yesterday: 54 °F (at 6:00 AM)
Average temperature yesterday: 63 °F

High & Low Weather Summary for the Past Weeks

 TemperatureHumidityPressure
High81 °F (Jul 21, 4:00 PM)100% (Jul 15, 5:45 AM)30.27 "Hg (Jul 15, 5:45 AM)
Low48 °F (Jul 15, 12:00 PM)17% (Jul 21, 7:00 PM)29.78 "Hg (Jul 10, 3:00 PM)
Average61 °F68%29.99 "Hg
* Reported Jul 8 6:00 AM — Jul 23 6:00 AM, Calgary, Weather by CustomWeather, © 2016

Note: Actual official high and low records may vary slightly from our data, if they occured in-between our weather recording intervals... More about our weather records

Advertising

Calgary Weather History for the Previous 24 Hours

Scroll right to see more
 ConditionsComfort  
Time TempWeatherWind HumidityBarometerVisibility
6:00 AM
Sat, Jul 23
54 °FPassing clouds.5 mph82%29.99 "Hg20 mi
5:00 AM54 °FPassing clouds.9 mph82%29.99 "Hg15 mi
4:00 AM54 °FPassing clouds.13 mph88%29.96 "Hg15 mi
3:00 AM57 °FThunderstorms. Partly cloudy.17 mph77%29.93 "Hg11 mi
2:00 AM66 °FPartly cloudy.14 mph43%29.86 "Hg15 mi
1:00 AM64 °FPassing clouds.9 mph46%29.85 "Hg15 mi
12:00 AM63 °FPartly cloudy.5 mph59%29.85 "Hg15 mi
11:00 PM
Fri, Jul 22
66 °FPassing clouds.2 mph52%29.84 "Hg15 mi
10:00 PM64 °FPartly sunny.No wind60%29.84 "Hg20 mi
9:00 PM64 °FMore clouds than sun.8 mph60%29.84 "Hg20 mi
8:00 PM64 °FPartly sunny.12 mph56%29.86 "Hg20 mi
7:00 PM66 °FBroken clouds.13 mph52%29.87 "Hg30 mi
6:00 PM70 °FCloudy.21 mph43%29.90 "Hg40 mi
5:00 PM68 °FCloudy.12 mph64%29.93 "Hg40 mi
4:00 PM70 °FCloudy.7 mph53%29.92 "Hg40 mi
3:00 PM70 °FBroken clouds.5 mph60%29.95 "Hg40 mi
2:00 PM70 °FBroken clouds.7 mph60%29.95 "Hg40 mi
1:00 PM72 °FBroken clouds.6 mph50%29.96 "Hg40 mi
12:00 PM70 °FBroken clouds.2 mph57%29.99 "Hg40 mi
11:00 AM66 °FBroken clouds.6 mph64%30.01 "Hg40 mi
10:00 AM64 °FBroken clouds.No wind64%30.03 "Hg40 mi
9:00 AM61 °FBroken clouds.3 mph72%30.03 "Hg40 mi
8:00 AM57 °FPartly sunny.2 mph77%30.05 "Hg40 mi
7:00 AM54 °FPassing clouds.No wind82%30.06 "Hg30 mi
Weather by CustomWeather, © 2016

See weather overviewHow to use our weather pages